CZ-6A DEB

Satellite information

Favourite Embed

Satellite Type and Status

DEBRISIN ORBIT

Key statistics

Satellite CZ-6A DEB at a glance.

Uptime

1129

Days in orbit

Revolutions

≈ 14.1

Per day

Orbit

SSO

Sun Synchronous Orbit

Inclination

98.8

Latest

Satellite identification and parameters

Extended collection of information and parameters for CZ-6A DEB.

Object identification

Identified? True

Debris? True

Object name: CZ-6A DEB

International designator: 2022-151NN

Object number (NORAD): 54612

Object ID (CCSDS): 54612

Country: PEOPLES REPUBLIC OF CHINA (PRC)

Current information (Y/N): Y

RCS size: SMALL

Orbital parameters

Period: 102.014 minutes

Inclination: 98.8292 deg

SMA: 7232.133 km

Apoapsis: 890.375 km

Periapsis: 817.621 km

RAAN: 345.3007 deg

Eccentricy: 0.00502988

Argument of periapsis: 153.8412 deg

Mean anomaly: 206.5316 deg

Mean motion: 14.11572317 rev/day

Mean motion (dot): 0.00001129 rev/day2

B* drag term: 0.00063779547 1/REarth

Two-line elements (TLE)

Creation date: Dec. 14, 2025, 3:07 a.m.

Reference frame: TEME

Reference center: EARTH

Epoch: Dec. 13, 2025, 2:16 p.m. UTC

TLE line 0: 0 CZ-6A DEB

TLE line 1: 1 54612U 22151NN 25347.59470592 .00001129 00000-0 63780-3 0 9991

TLE line 2: 2 54612 98.8292 345.3007 0050299 153.8412 206.5316 14.11572317158187

Live tracking on map

Real-time ground track for satellite CZ-6A DEB.

In-orbit conjunctions

A list of the most updated potential collisions computed for object CZ-6A DEB.

Target Orbit TCA Probability of collision Miss distance Type
FENGYUN 1C DEB SSO 2025-05-27 15:37:15 0.0003053403 210.0 (m) DEBRIS
METEOR 2-8 DEB LEO 2024-09-26 22:26:35 0.000136639 293.0 (m) DEBRIS

Associated space launch

Chinese satellite reported for atmospheric/ocean/environmental/spatial parameter research purposes, details TBD.

CZ-6A DEB was lifted into orbit during the mission ‘Long March 6A | Yunhai 3’, on board a Long March 6A space rocket.

The launch took place on Nov. 11, 2022, 10:52 p.m. from Launch Complex 9A.

For more information about the launch, click the button.

Launch to space Long March 6A | Yunhai 3
Long March 6A | Yunhai 3

Agency: N/A

Status: Launch Successful

Launch date: Nov. 11, 2022, 10:52 p.m. UTC

Rocket: Long March 6A

Launch pad: Launch Complex 9A

Location: Taiyuan Satellite Launch Center, People's Republic of China

...

Latest news about this satellite

There are no fresh news available about this satellite. Check back as we update our databases every day.


Newsletter sign-up

Weekly statistics, charts and insights to help you stay on top of the space industry.